350P/McNaught (2026)

Japanese version
Home page
Updated on March 26, 2025

---------------------------------------------------------------------

* Profile

* Pictures

* Orbital Elements

Epoch 2025 May 5.0 TT = JDT 2460800.5
T 2026 Mar. 17.33458 TT                                 Pike
q   3.6944124            (2000.0)            P               Q
n   0.11955818     Peri.  140.04434     -0.89897157     +0.42223977
a   4.0808427      Node    65.29546     -0.42744897     -0.78769292
e   0.0946937      Incl.    7.36539     -0.09559027     -0.44861280
P   8.24
From 158 observations 2005 Nov. 1-2025 Feb. 26, mean residual 0".8.
     Nongravitational parameters A1 = +4.09, A2 = -0.0062.

* Magnitudes Graph

        m1 = 6.5 + 5 log d + 20.0 log r

---------------------------------------------------------------------

The orbital elements are published on M.P.E.C. 2025-D254.
The magnitudes graphs are made with Comet for Windows.

---------------------------------------------------------------------

Copyright(C) Seiichi Yoshida (comet@aerith.net). All rights reserved.